DG8SF-13 Weather Reports


Display with metric or nautical units.
time (UTC)temp
F
wind
direction
speed
MPH
gust
MPH
rain 1hr
in
rain 24hr
in
rain mn
in
humidity
%
barometer
mb
20260506230241 45 292 1.0 2.0 0.00 0.22 0.00 97 1009.9
20260506225728 45 292 1.0 2.0 0.00 0.22 0.00 97 1010.0
20260506225222 46 292 1.0 2.0 0.00 0.22 0.00 97 1010.1
20260506224704 46 292 1.0 2.0 0.00 0.22 0.00 97 1010.0
20260506224152 46 292 1.0 4.0 0.00 0.22 0.00 97 1010.0
20260506223639 46 292 1.0 2.0 0.00 0.22 0.00 97 1010.0
20260506223130 46 292 1.0 2.0 0.00 0.22 0.00 97 1009.9
20260506222615 46 292 1.0 2.0 0.00 0.22 0.00 97 1009.9
20260506222106 46 292 1.0 2.0 0.00 0.22 0.00 97 1009.8
20260506221553 46 292 1.0 2.0 0.00 0.22 0.00 97 1009.8
20260506221041 46 292 1.0 2.0 0.00 0.22 0.00 96 1009.7
20260506220527 46 315 1.0 2.0 0.00 0.22 0.00 96 1009.7
20260506220018 46 315 0.0 4.0 0.00 0.22 0.00 96 1009.6
20260506215504 46 315 0.0 2.0 0.00 0.22 0.22 96 1009.6
20260506215003 46 0 0.0 0.0 0.00 0.22 0.22 96 1009.5
20260506214439 46 315 0.0 0.0 0.00 0.22 0.22 95 1009.5
20260506213930 47 315 1.0 4.0 0.00 0.22 0.22 95 1009.4
20260506213416 47 315 1.0 2.0 0.00 0.22 0.22 95 1009.3
20260506212907 47 315 2.0 4.0 0.00 0.22 0.22 95 1009.3
20260506212351 47 292 2.0 7.0 0.00 0.22 0.22 95 1009.3
20260506211841 47 248 2.0 4.0 0.00 0.22 0.22 95 1009.2
20260506211328 47 248 3.0 7.0 0.00 0.22 0.22 95 1009.2
20260506210818 47 248 3.0 9.0 0.00 0.22 0.22 95 1009.2
20260506210302 47 248 2.0 4.0 0.00 0.22 0.22 95 1009.1
20260506205754 47 248 2.0 7.0 0.00 0.22 0.22 95 1009.1
20260506205241 47 270 2.0 7.0 0.00 0.22 0.22 95 1009.2
20260506204729 47 248 2.0 4.0 0.00 0.22 0.22 95 1009.2
20260506204216 47 248 1.0 4.0 0.00 0.22 0.22 95 1009.1
20260506203704 47 248 1.0 7.0 0.00 0.22 0.22 95 1009.2
20260506203152 48 248 1.0 2.0 0.00 0.22 0.22 95 1009.1
20260506202642 48 248 2.0 4.0 0.00 0.22 0.22 95 1009.1
20260506202129 48 248 1.0 4.0 0.00 0.22 0.22 95 1009.0
20260506201616 48 248 2.0 4.0 0.00 0.22 0.22 94 1009.1
20260506201104 48 248 2.0 7.0 0.00 0.22 0.22 94 1009.0
20260506200554 48 248 3.0 7.0 0.00 0.22 0.22 95 1009.0
20260506200040 48 248 3.0 7.0 0.00 0.22 0.22 95 1009.0
20260506195530 48 270 2.0 4.0 0.00 0.22 0.22 96 1008.9
20260506195017 48 270 2.0 4.0 0.00 0.22 0.22 96 1008.8
20260506194505 48 270 1.0 4.0 0.00 0.22 0.22 96 1008.7
20260506193952 48 270 1.0 4.0 0.00 0.22 0.22 96 1008.7
20260506193441 48 270 1.0 4.0 0.00 0.22 0.22 96 1008.6
20260506192928 48 270 1.0 4.0 0.00 0.22 0.22 95 1008.6
20260506192420 48 270 1.0 4.0 0.00 0.22 0.22 95 1008.4
20260506191904 49 270 2.0 2.0 0.00 0.22 0.22 94 1008.3
20260506191353 49 270 2.0 4.0 0.00 0.22 0.22 94 1008.2
20260506190329 49 270 2.0 4.0 0.00 0.22 0.22 95 1008.2
20260506185816 49 270 2.0 4.0 0.00 0.22 0.22 95 1008.2
20260506185307 49 68 3.0 7.0 0.00 0.22 0.22 95 1008.2
20260506184752 49 270 2.0 7.0 0.00 0.22 0.22 95 1008.0
20260506184242 49 248 2.0 4.0 0.02 0.22 0.22 95 1007.9
20260506183728 49 248 2.0 4.0 0.02 0.22 0.22 95 1007.8
20260506183227 49 202 2.0 7.0 0.02 0.22 0.22 95 1007.8
20260506182703 49 248 2.0 9.0 0.02 0.22 0.22 95 1007.8
20260506182153 50 248 2.0 4.0 0.02 0.22 0.22 95 1007.6
20260506181641 50 225 2.0 7.0 0.02 0.22 0.22 95 1007.7
20260506181129 50 202 2.0 4.0 0.02 0.22 0.22 95 1007.6
20260506180615 50 202 2.0 4.0 0.02 0.22 0.22 95 1007.5
20260506180107 50 202 2.0 4.0 0.02 0.22 0.22 95 1007.4
20260506175553 51 225 2.0 7.0 0.02 0.22 0.22 95 1007.3
20260506175031 51 225 2.0 4.0 0.03 0.22 0.22 95 1007.3
20260506174516 51 248 1.0 7.0 0.03 0.22 0.22 94 1007.1
20260506174006 52 270 1.0 2.0 0.02 0.20 0.20 95 1007.1
20260506173452 52 270 1.0 2.0 0.02 0.20 0.20 95 1007.1
20260506172942 52 270 0.0 2.0 0.02 0.20 0.20 95 1006.9
20260506172428 52 270 0.0 0.0 0.03 0.20 0.20 95 1006.8
20260506171916 52 270 1.0 2.0 0.03 0.20 0.20 95 1006.8
20260506171403 52 270 1.0 4.0 0.03 0.20 0.20 95 1006.7
20260506170853 52 270 1.0 2.0 0.05 0.20 0.20 95 1006.8
20260506170346 52 270 1.0 2.0 0.08 0.20 0.20 94 1006.8
20260506165829 52 270 1.0 4.0 0.08 0.20 0.20 94 1006.6
20260506165318 52 270 2.0 4.0 0.09 0.20 0.20 94 1006.7
20260506164805 52 270 2.0 4.0 0.13 0.19 0.19 94 1006.7
20260506164253 52 292 2.0 7.0 0.17 0.19 0.19 94 1006.7
20260506163742 52 225 2.0 4.0 0.19 0.19 0.19 94 1006.7
20260506163228 52 270 2.0 2.0 0.19 0.19 0.19 94 1006.6
20260506162718 52 270 1.0 2.0 0.19 0.19 0.19 94 1006.6
20260506162205 52 270 1.0 2.0 0.17 0.17 0.17 94 1006.6
20260506161653 52 270 2.0 4.0 0.17 0.17 0.17 93 1006.5
20260506161139 52 270 2.0 4.0 0.17 0.17 0.17 92 1006.4
20260506160630 52 248 2.0 4.0 0.16 0.16 0.16 93 1006.4
20260506160104 52 248 2.0 4.0 0.13 0.13 0.13 92 1006.4
20260506155553 53 248 2.0 4.0 0.13 0.13 0.13 91 1006.4
20260506155046 53 248 2.0 4.0 0.11 0.11 0.11 90 1006.3
20260506154529 54 248 2.0 7.0 0.06 0.06 0.06 88 1006.1
20260506154018 55 158 2.0 7.0 0.02 0.02 0.02 83 1005.8
20260506153506 56 248 2.0 9.0 0.00 0.00 0.00 76 1005.5
20260506152951 58 270 2.0 7.0 0.00 0.00 0.00 70 1005.0
20260506152441 61 248 2.0 2.0 0.00 0.00 0.00 65 1004.9
20260506151928 62 248 2.0 7.0 0.00 0.00 0.00 60 1004.6
20260506151417 64 248 2.0 7.0 0.00 0.00 0.00 57 1004.3
20260506150906 65 225 2.0 2.0 0.00 0.00 0.00 55 1004.1
20260506150355 67 225 1.0 2.0 0.00 0.00 0.00 54 1004.2
20260506145840 68 225 2.0 4.0 0.00 0.00 0.00 52 1004.2
20260506145329 69 225 2.0 2.0 0.00 0.00 0.00 53 1004.2
20260506144817 69 225 2.0 4.0 0.00 0.00 0.00 51 1004.3
20260506144304 69 225 2.0 2.0 0.00 0.00 0.00 55 1004.4
20260506143751 71 225 2.0 4.0 0.00 0.00 0.00 52 1004.2
20260506143243 70 225 2.0 4.0 0.00 0.00 0.00 55 1004.2
20260506142728 68 225 1.0 2.0 0.00 0.00 0.00 57 1004.3
20260506142217 65 225 2.0 4.0 0.00 0.00 0.00 60 1004.5
20260506141705 65 225 2.0 7.0 0.00 0.00 0.00 61 1004.4
20260506141154 65 225 1.0 4.0 0.00 0.00 0.00 61 1004.4
20260506140642 65 225 1.0 4.0 0.00 0.00 0.00 60 1004.5
20260506140129 65 225 1.0 4.0 0.00 0.00 0.00 59 1004.5
20260506135616 66 225 1.0 2.0 0.00 0.00 0.00 60 1004.4
20260506135107 66 225 1.0 4.0 0.00 0.00 0.00 58 1004.5
20260506134553 66 225 1.0 2.0 0.00 0.00 0.00 57 1004.7
20260506134041 66 112 1.0 2.0 0.00 0.00 0.00 58 1004.7
20260506133528 65 112 0.0 2.0 0.00 0.02 0.00 58 1004.7
20260506133017 65 112 0.0 2.0 0.00 0.02 0.00 58 1004.7
20260506132506 65 112 1.0 2.0 0.00 0.02 0.00 58 1004.7
20260506131953 65 112 1.0 2.0 0.00 0.02 0.00 58 1004.6
20260506131440 65 112 0.0 0.0 0.00 0.02 0.00 57 1004.6
20260506130933 66 112 1.0 2.0 0.00 0.02 0.00 58 1004.5
20260506130416 67 112 1.0 2.0 0.00 0.02 0.00 57 1004.6
20260506125910 66 112 1.0 2.0 0.00 0.02 0.00 56 1004.6
20260506125353 67 112 1.0 4.0 0.00 0.02 0.00 56 1004.5
20260506124841 67 112 0.0 2.0 0.00 0.02 0.00 55 1004.5
20260506124329 65 112 1.0 2.0 0.00 0.02 0.00 56 1004.5
20260506123817 65 112 1.0 2.0 0.00 0.02 0.00 59 1004.6
20260506123305 65 112 1.0 2.0 0.00 0.02 0.00 56 1004.6
20260506122754 66 180 1.0 2.0 0.00 0.02 0.00 56 1004.6
20260506122240 66 248 0.0 2.0 0.00 0.02 0.00 55 1004.5
20260506121731 65 248 1.0 2.0 0.00 0.02 0.00 56 1004.5
20260506121216 65 248 1.0 4.0 0.00 0.02 0.00 57 1004.6
20260506120707 65 248 1.0 2.0 0.00 0.02 0.00 56 1004.7
20260506120151 65 248 1.0 2.0 0.00 0.02 0.00 55 1004.7
20260506115643 66 248 0.0 2.0 0.00 0.02 0.00 54 1004.7
20260506115129 66 248 0.0 2.0 0.00 0.02 0.00 54 1004.7
20260506114618 67 248 1.0 2.0 0.00 0.02 0.00 53 1004.8
20260506114104 66 248 1.0 2.0 0.00 0.02 0.00 54 1004.8
20260506113554 67 248 1.0 2.0 0.00 0.02 0.00 54 1004.7
20260506113040 67 248 1.0 2.0 0.00 0.02 0.00 53 1004.7
20260506112530 68 248 1.0 2.0 0.00 0.02 0.00 55 1004.7
20260506112017 68 202 1.0 2.0 0.00 0.02 0.00 51 1004.7
20260506111504 65 202 2.0 2.0 0.00 0.02 0.00 52 1004.8
20260506110953 64 158 1.0 2.0 0.00 0.02 0.00 58 1004.9
20260506110441 63 158 1.0 4.0 0.00 0.02 0.00 59 1005.1
20260506105928 62 202 1.0 4.0 0.00 0.02 0.00 61 1005.1
20260506105417 63 202 1.0 2.0 0.00 0.02 0.00 62 1005.2
20260506104904 63 202 0.0 2.0 0.00 0.02 0.00 60 1005.3
20260506104354 62 202 0.0 2.0 0.00 0.02 0.00 64 1005.4
20260506103841 63 202 0.0 0.0 0.00 0.02 0.00 62 1005.5
20260506103330 62 202 0.0 2.0 0.00 0.02 0.00 62 1005.6
20260506102816 63 202 1.0 4.0 0.00 0.02 0.00 61 1005.7
20260506102306 64 202 0.0 0.0 0.00 0.02 0.00 60 1005.7
20260506101754 64 202 1.0 4.0 0.00 0.02 0.00 61 1005.8
20260506101241 65 202 0.0 0.0 0.00 0.02 0.00 57 1005.8
20260506100730 63 202 1.0 4.0 0.00 0.02 0.00 60 1005.9
20260506100218 63 202 1.0 4.0 0.00 0.02 0.00 61 1005.9
20260506095707 64 202 1.0 4.0 0.00 0.02 0.00 62 1005.9
20260506095152 62 202 2.0 4.0 0.00 0.02 0.00 62 1005.9
20260506094641 62 202 1.0 4.0 0.00 0.02 0.00 62 1005.9
20260506094130 64 202 1.0 2.0 0.00 0.02 0.00 58 1005.9
20260506093617 65 202 1.0 2.0 0.00 0.02 0.00 60 1005.9
20260506093106 65 202 0.0 2.0 0.00 0.02 0.00 60 1005.8
20260506092551 64 202 1.0 2.0 0.00 0.02 0.00 61 1005.9
20260506092043 63 202 1.0 2.0 0.00 0.02 0.00 58 1005.9
20260506091530 64 202 1.0 2.0 0.00 0.02 0.00 61 1005.9
20260506091017 63 202 1.0 2.0 0.00 0.02 0.00 63 1005.8
20260506090504 63 202 0.0 2.0 0.00 0.02 0.00 65 1005.8
20260506085955 62 202 0.0 2.0 0.00 0.02 0.00 63 1005.9
20260506085441 61 202 0.0 2.0 0.00 0.02 0.00 69 1005.9
20260506084930 60 202 1.0 2.0 0.00 0.02 0.00 71 1006.0
20260506084417 59 202 1.0 2.0 0.00 0.02 0.00 72 1005.8
20260506083905 59 202 1.0 2.0 0.00 0.02 0.00 73 1005.9
20260506083353 59 202 1.0 2.0 0.00 0.02 0.00 72 1005.9
20260506082840 59 202 1.0 2.0 0.00 0.02 0.00 74 1005.9
20260506082329 58 202 0.0 2.0 0.00 0.02 0.00 77 1006.0
20260506081818 58 202 0.0 2.0 0.00 0.02 0.00 78 1006.0
20260506081306 57 202 0.0 2.0 0.00 0.02 0.00 79 1005.9
20260506080752 56 202 1.0 2.0 0.00 0.02 0.00 80 1006.0
20260506080242 56 202 1.0 2.0 0.00 0.02 0.00 81 1006.1
20260506073134 55 158 1.0 2.0 0.00 0.02 0.00 82 1006.5
20260506072617 55 158 0.0 2.0 0.00 0.02 0.00 83 1006.6
20260506072107 55 158 1.0 2.0 0.00 0.02 0.00 84 1006.7
20260506071553 55 158 1.0 2.0 0.00 0.02 0.00 83 1006.5
20260506071040 55 158 1.0 4.0 0.00 0.02 0.00 83 1006.4
20260506070528 55 158 0.0 4.0 0.00 0.02 0.00 83 1006.3
20260506062352 58 270 1.0 2.0 0.00 0.02 0.00 76 1006.2
20260506061842 59 270 0.0 4.0 0.00 0.02 0.00 76 1006.1
20260506061328 57 0 0.0 0.0 0.00 0.02 0.00 80 1006.2
20260506060819 57 0 0.0 0.0 0.00 0.02 0.00 78 1006.2
20260506060305 59 0 0.0 0.0 0.00 0.02 0.00 76 1006.3
20260506051117 49 0 0.0 0.0 0.00 0.02 0.00 98 1006.5
20260506050606 48 0 0.0 0.0 0.00 0.02 0.00 98 1006.5
20260506045029 47 0 0.0 0.0 0.00 0.02 0.00 98 1006.6
20260506044519 47 0 0.0 0.0 0.00 0.02 0.00 98 1006.7
20260506044004 46 0 0.0 0.0 0.00 0.02 0.00 98 1006.7
20260506043452 46 0 0.0 0.0 0.00 0.02 0.00 98 1006.7
20260506042951 47 0 0.0 0.0 0.00 0.02 0.00 98 1006.9
20260506042441 47 0 0.0 0.0 0.00 0.02 0.00 98 1007.0
20260506041928 46 0 0.0 0.0 0.00 0.02 0.00 98 1007.1
20260506041417 46 0 0.0 0.0 0.00 0.02 0.00 97 1007.0
20260506040906 46 0 0.0 0.0 0.00 0.02 0.00 97 1007.0
20260506040355 46 0 0.0 0.0 0.00 0.02 0.00 97 1007.0
20260506035839 47 0 0.0 0.0 0.00 0.02 0.00 97 1007.1
20260506035343 46 0 0.0 0.0 0.00 0.02 0.00 97 1007.1
20260506034828 46 0 0.0 0.0 0.00 0.02 0.00 97 1007.2
20260506034319 46 0 0.0 0.0 0.00 0.02 0.00 97 1007.2
20260506033804 46 0 0.0 0.0 0.00 0.02 0.00 97 1007.3
20260506033306 46 0 0.0 0.0 0.00 0.02 0.00 97 1007.3
20260506032751 46 0 0.0 0.0 0.00 0.02 0.00 97 1007.2
20260506032254 46 0 0.0 0.0 0.00 0.02 0.00 97 1007.4
20260506031740 47 0 0.0 0.0 0.00 0.02 0.00 97 1007.3
20260506031229 47 0 0.0 0.0 0.00 0.02 0.00 97 1007.3
20260506030717 46 0 0.0 0.0 0.00 0.02 0.00 96 1007.3
20260506030217 46 0 0.0 0.0 0.00 0.02 0.00 96 1007.3
20260506025703 46 0 0.0 0.0 0.00 0.02 0.00 96 1007.5
20260506025207 46 0 0.0 0.0 0.00 0.02 0.00 96 1007.4
20260506024653 47 0 0.0 0.0 0.00 0.02 0.00 96 1007.4
20260506024142 47 0 0.0 0.0 0.00 0.02 0.00 96 1007.4
20260506023628 47 0 0.0 0.0 0.00 0.02 0.00 96 1007.5
20260506023118 47 270 0.0 2.0 0.00 0.02 0.00 96 1007.5
20260506022605 47 0 0.0 0.0 0.00 0.02 0.00 95 1007.4
20260506022101 47 0 0.0 0.0 0.00 0.02 0.00 95 1007.5
20260506021541 47 0 0.0 0.0 0.00 0.02 0.00 95 1007.4
20260506021029 47 0 0.0 0.0 0.00 0.02 0.00 94 1007.4
20260506020516 48 0 0.0 0.0 0.00 0.02 0.00 94 1007.4
20260506020020 48 270 0.0 0.0 0.00 0.02 0.00 94 1007.3
20260506015504 49 270 1.0 2.0 0.00 0.02 0.00 95 1007.3
20260506014953 49 270 1.0 4.0 0.00 0.02 0.00 94 1007.4
20260506014441 49 270 1.0 2.0 0.00 0.02 0.00 94 1007.5
20260506013929 49 270 1.0 2.0 0.00 0.02 0.00 94 1007.6
20260506013416 49 270 2.0 4.0 0.00 0.02 0.00 94 1007.7
20260506012906 49 270 2.0 4.0 0.00 0.02 0.00 94 1007.8
20260506012352 49 270 2.0 4.0 0.00 0.02 0.00 94 1007.9
20260506011840 49 225 2.0 4.0 0.00 0.02 0.00 94 1007.9
20260506011329 49 225 2.0 4.0 0.00 0.02 0.00 94 1007.8
20260506010816 49 225 2.0 4.0 0.00 0.02 0.00 95 1007.9
20260506010306 48 225 2.0 2.0 0.00 0.02 0.00 95 1007.8
20260506005801 48 225 1.0 2.0 0.00 0.02 0.00 95 1007.8
20260506005242 48 225 0.0 0.0 0.00 0.02 0.00 95 1007.7
20260506004731 48 225 0.0 2.0 0.00 0.02 0.00 95 1007.5
20260506004216 48 225 0.0 0.0 0.00 0.02 0.00 95 1007.7
20260506003706 48 225 1.0 2.0 0.00 0.02 0.00 94 1007.7
20260506003152 48 225 1.0 2.0 0.00 0.02 0.00 95 1007.7
20260506002641 48 225 0.0 2.0 0.00 0.02 0.00 95 1007.9
20260506002128 48 0 0.0 0.0 0.00 0.02 0.00 94 1008.0
20260506001618 48 225 1.0 2.0 0.00 0.02 0.00 94 1008.0
20260506001103 48 225 1.0 2.0 0.00 0.02 0.00 95 1007.9
20260506000553 48 225 1.0 2.0 0.00 0.02 0.00 94 1008.1
20260506000041 48 225 0.0 2.0 0.00 0.02 0.00 94 1008.1
20260505235529 48 0 0.0 0.0 0.00 0.02 0.00 94 1008.1
20260505235016 48 225 0.0 2.0 0.00 0.02 0.00 94 1008.2
20260505234505 48 0 0.0 0.0 0.00 0.02 0.00 94 1008.1
20260505233953 48 0 0.0 0.0 0.00 0.02 0.00 94 1008.3
20260505233443 48 225 0.0 0.0 0.00 0.02 0.00 93 1008.3
20260505232928 48 225 0.0 2.0 0.00 0.02 0.00 94 1008.4
20260505232417 48 0 0.0 0.0 0.00 0.02 0.00 92 1008.4
20260505231905 48 0 0.0 0.0 0.00 0.02 0.00 92 1008.4
20260505231355 49 0 0.0 0.0 0.00 0.02 0.00 91 1008.3
20260505230840 49 0 0.0 0.0 0.00 0.02 0.00 91 1008.4
20260505230328 49 0 0.0 0.0 0.00 0.02 0.00 91 1008.5